This is the latest recevied weather packets stored in our database for station/object CQ0XSM-11. If no packets are shown the sender has not sent any weather packets the latest 1 day(s).
| Time | Temp. | Humidity | Pressure | Rain* | Wind** | Luminosity | Snow |
|---|---|---|---|---|---|---|---|
| 1778035468 | 6.11° C | 100% | 994.8 hPa | 0 mm | 0.89 m/s, 315° | - | - |
| 1778035176 | 6.67° C | 100% | 994.8 hPa | 0 mm | 0.89 m/s, 288° | - | - |
| 1778034861 | 6.67° C | 100% | 994.8 hPa | 0 mm | 0.89 m/s, 274° | - | - |
| 1778034553 | 6.67° C | 100% | 994.8 hPa | 0 mm | 0.45 m/s, 313° | - | - |
| 1778034261 | 6.67° C | 100% | 994.8 hPa | 0 mm | 1.34 m/s, 326° | - | - |
| 1778033966 | 6.67° C | 100% | 994.8 hPa | 0 mm | 1.34 m/s, 283° | - | - |
| 1778033674 | 6.67° C | 100% | 994.9 hPa | 0 mm | 1.79 m/s, 327° | - | - |
| 1778033349 | 6.67° C | 100% | 994.8 hPa | 0 mm | 1.34 m/s, 300° | - | - |
| 1778033047 | 6.67° C | 100% | 994.9 hPa | 0 mm | 0.89 m/s, 297° | - | - |
| 1778032742 | 6.67° C | 100% | 995 hPa | 0 mm | 0.89 m/s, 309° | - | - |
| 1778032437 | 6.67° C | 100% | 995 hPa | 0 mm | 0.45 m/s, 285° | - | - |
| 1778031827 | 6.67° C | 100% | 995.2 hPa | 0 mm | 0.45 m/s, 312° | - | - |
| 1778031522 | 6.67° C | 100% | 995.1 hPa | 0 mm | 0.45 m/s, 305° | - | - |
| 1778031223 | 6.67° C | 100% | 995.2 hPa | 0 mm | 0.89 m/s, 290° | - | - |
| 1778030932 | 7.22° C | 100% | 995.3 hPa | 0 mm | 0.45 m/s, 273° | - | - |
| 1778030634 | 7.22° C | 100% | 995.4 hPa | 0 mm | 0 m/s | - | - |
| 1778030313 | 7.22° C | 100% | 995.4 hPa | 0 mm | 0 m/s | - | - |
| 1778030027 | 7.22° C | 100% | 995.3 hPa | 0 mm | 0.45 m/s, 290° | - | - |
| 1778029714 | 7.22° C | 100% | 995.4 hPa | 0 mm | 0.45 m/s, 315° | - | - |
| 1778029439 | 7.22° C | 100% | 995.5 hPa | 0 mm | 1.34 m/s, 313° | - | - |
| 1778029117 | 7.78° C | 100% | 995.4 hPa | 0 mm | 0.89 m/s, 298° | - | - |
| 1778028809 | 7.78° C | 100% | 995.4 hPa | 0 mm | 0.45 m/s, 315° | - | - |
| 1778028490 | 7.78° C | 100% | 995.5 hPa | 0 mm | 1.79 m/s, 326° | - | - |
| 1778028200 | 7.78° C | 100% | 995.6 hPa | 0 mm | 0.89 m/s, 288° | - | - |
| 1778027883 | 7.22° C | 100% | 995.7 hPa | 0 mm | 0.89 m/s, 323° | - | - |
* Rain since midnight (hover to see other rain measurements)
** Current wind speed in m/s (hover to see current wind gust speed)